Gulf Shores, AL

2:33 AM CDT on August 22, 2017 (GMT -0500)
Edwards

Weather History for KJKA - December, 2012

Change the Weather History Date:

Monday, December 31, 2012

  Actual Average (KNPA) Record (KNPA)
Temperature  
Mean Temperature 50 °F -  
Max Temperature 62 °F 58 °F 71 °F (1996)
Min Temperature 37 °F 39 °F 23 °F (2000)
Degree Days  
Heating Degree Days 16    
Moisture  
Dew Point 42 °F    
Average Humidity 74    
Maximum Humidity 94    
Minimum Humidity 59    
Precipitation  
Precipitation 0.00 in - - ()
Sea Level Pressure  
Sea Level Pressure 30.26 in    
Wind  
Wind Speed 4 mph (NE)    
Max Wind Speed 8 mph    
Max Gust Speed -    
Visibility 9 miles    
Events      
Averages and records for this station are not official NWS values.
T = Trace of Precipitation, MM = Missing Value Source: NWS Daily Summary

Daily Weather History Graph

Daily Weather History Graph

Search for Another Location

Airport or City:

Trip Planner

Search our weather history database for the weather conditions in past years. The results will help you decide how hot, cold, wet, or windy it might be!

Date:

Astronomy

Dec. 31, 2012 Rise Set
Actual Time 6:47 AM CST 5:00 PM CST
Civil Twilight 6:20 AM CST 5:27 PM CST
Nautical Twilight 5:50 AM CST 5:57 PM CST
Astronomical Twilight 5:21 AM CST 6:26 PM CST
Moon 8:15 PM CST (12/31) 8:42 AM CST (12/31)
Length of Visible Light 11h 06m
Length of Day
10h 13m
Waning Gibbous, 90% of the Moon is Illuminated
Dec 31
Waning Gibbous
Jan 4
Last Quarter
Jan 11
New
Jan 18
First Quarter
Jan 26
Full

Hourly Weather History & Observations

Time (CST) Temp. Windchill Dew Point Humidity Pressure Visibility Wind Dir Wind Speed Gust Speed Precip Events Conditions
12:15 AM 37.4 °F 34.9 °F 30.2 °F 75% 30.36 in 10.0 mi NNE 3.5 mph - N/A   Clear
12:35 AM 37.4 °F 34.9 °F 30.2 °F 75% 30.36 in 10.0 mi NNE 3.5 mph - N/A   Clear
12:55 AM 37.4 °F 32.8 °F 30.2 °F 75% 30.35 in 10.0 mi NNE 5.8 mph - N/A   Clear
1:15 AM 37.4 °F 32.8 °F 30.2 °F 75% 30.34 in 10.0 mi NNE 5.8 mph - N/A   Clear
1:35 AM 37.4 °F 33.8 °F 30.2 °F 75% 30.34 in 10.0 mi NNE 4.6 mph - N/A   Clear
1:55 AM 37.4 °F 33.8 °F 30.2 °F 75% 30.34 in 10.0 mi NNE 4.6 mph - N/A   Clear
2:15 AM 37.4 °F 33.8 °F 30.2 °F 75% 30.33 in 10.0 mi NNE 4.6 mph - N/A   Clear
2:35 AM 37.4 °F 32.8 °F 30.2 °F 75% 30.33 in 10.0 mi NE 5.8 mph - N/A   Clear
2:55 AM 39.2 °F 35.0 °F 30.2 °F 70% 30.33 in 10.0 mi NNE 5.8 mph - N/A   Clear
3:15 AM 39.2 °F 35.0 °F 30.2 °F 70% 30.32 in 10.0 mi NE 5.8 mph - N/A   Clear
3:35 AM 39.2 °F 35.0 °F 30.2 °F 70% 30.32 in 10.0 mi NE 5.8 mph - N/A   Clear
3:55 AM 39.2 °F 35.0 °F 32.0 °F 75% 30.31 in 10.0 mi NNE 5.8 mph - N/A   Clear
4:15 AM 39.2 °F 37.0 °F 30.2 °F 70% 30.32 in 10.0 mi NNE 3.5 mph - N/A   Clear
4:35 AM 39.2 °F - 32.0 °F 75% 30.32 in 10.0 mi Calm Calm - N/A   Clear
4:55 AM 39.2 °F 35.9 °F 32.0 °F 75% 30.34 in 10.0 mi North 4.6 mph - N/A   Clear
5:15 AM 37.4 °F - 30.2 °F 75% 30.33 in 10.0 mi Calm Calm - N/A   Clear
5:35 AM 37.4 °F 33.8 °F 30.2 °F 75% 30.31 in 10.0 mi NE 4.6 mph - N/A   Clear
5:55 AM 39.2 °F 35.9 °F 32.0 °F 75% 30.30 in 10.0 mi NE 4.6 mph - N/A   Clear
6:15 AM 39.2 °F 37.0 °F 32.0 °F 75% 30.31 in 10.0 mi NE 3.5 mph - N/A   Clear
6:55 AM 39.2 °F 37.0 °F 32.0 °F 75% 30.30 in 10.0 mi NE 3.5 mph - N/A   Clear
7:15 AM 41.0 °F 39.0 °F 32.0 °F 70% 30.31 in 10.0 mi NNE 3.5 mph - N/A   Scattered Clouds
7:35 AM 41.0 °F - 33.8 °F 76% 30.32 in 10.0 mi Calm Calm - N/A   Mostly Cloudy
7:55 AM 42.8 °F - 33.8 °F 70% 30.32 in 10.0 mi Calm Calm - N/A   Overcast
8:15 AM 42.8 °F 40.1 °F 35.6 °F 76% 30.33 in 10.0 mi North 4.6 mph - N/A   Overcast
8:35 AM 44.6 °F 41.4 °F 35.6 °F 71% 30.33 in 10.0 mi North 5.8 mph - N/A   Overcast
8:55 AM 46.4 °F 42.9 °F 37.4 °F 71% 30.33 in 10.0 mi NNE 6.9 mph - N/A   Overcast
9:15 AM 48.2 °F - 39.2 °F 71% 30.33 in 10.0 mi NNE 5.8 mph - N/A   Overcast
9:35 AM 50.0 °F - 41.0 °F 71% 30.33 in 10.0 mi NNE 5.8 mph - N/A   Mostly Cloudy
9:55 AM 51.8 °F - 41.0 °F 67% 30.33 in 10.0 mi NE 4.6 mph - N/A   Mostly Cloudy
10:15 AM 51.8 °F - 41.0 °F 67% 30.34 in 10.0 mi North 5.8 mph - N/A   Overcast
10:35 AM 53.6 °F - 41.0 °F 62% 30.34 in 10.0 mi North 5.8 mph - N/A   Overcast
10:55 AM 53.6 °F - 42.8 °F 67% 30.33 in 10.0 mi NNE 4.6 mph - N/A   Overcast
11:15 AM 55.4 °F - 44.6 °F 67% 30.31 in 10.0 mi Calm Calm - N/A   Overcast
11:35 AM 57.2 °F - 44.6 °F 63% 30.31 in 10.0 mi NNE 5.8 mph - N/A   Overcast
11:55 AM 59.0 °F - 46.4 °F 63% 30.28 in 10.0 mi ENE 5.8 mph - N/A   Overcast
12:15 PM 59.0 °F - 46.4 °F 63% 30.27 in 10.0 mi NNE 4.6 mph - N/A   Overcast
12:35 PM 59.0 °F - 46.4 °F 63% 30.26 in 10.0 mi NNE 5.8 mph - N/A   Overcast
12:55 PM 60.8 °F - 46.4 °F 59% 30.24 in 10.0 mi NE 5.8 mph - N/A   Overcast
1:15 PM 60.8 °F - 48.2 °F 63% 30.23 in 10.0 mi ENE 6.9 mph - N/A   Overcast
1:35 PM 62.6 °F - 48.2 °F 59% 30.22 in 10.0 mi ENE 5.8 mph - N/A   Mostly Cloudy
1:55 PM 60.8 °F - 48.2 °F 63% 30.21 in 10.0 mi East 6.9 mph - N/A   Mostly Cloudy
2:15 PM 60.8 °F - 48.2 °F 63% 30.21 in 10.0 mi East 8.1 mph - N/A   Overcast
2:35 PM 60.8 °F - 48.2 °F 63% 30.21 in 10.0 mi East 6.9 mph - N/A   Overcast
2:55 PM 60.8 °F - 48.2 °F 63% 30.20 in 10.0 mi ENE 5.8 mph - N/A   Overcast
3:15 PM 60.8 °F - 50.0 °F 68% 30.20 in 10.0 mi ENE 6.9 mph - N/A   Overcast
3:35 PM 60.8 °F - 50.0 °F 68% 30.20 in 10.0 mi East 5.8 mph - N/A   Overcast
3:55 PM 60.8 °F - 50.0 °F 68% 30.20 in 10.0 mi ENE 6.9 mph - N/A   Overcast
4:35 PM 59.0 °F - 50.0 °F 72% 30.19 in 10.0 mi ENE 5.8 mph - N/A   Overcast
4:55 PM 59.0 °F - 50.0 °F 72% 30.20 in 10.0 mi ENE 3.5 mph - N/A   Overcast
5:15 PM 59.0 °F - 51.8 °F 77% 30.20 in 10.0 mi ENE 5.8 mph - N/A   Overcast
5:35 PM 59.0 °F - 50.0 °F 72% 30.20 in 10.0 mi Calm Calm - N/A   Overcast
5:55 PM 59.0 °F - 51.8 °F 77% 30.20 in 10.0 mi Calm Calm - N/A   Overcast
6:15 PM 59.0 °F - 51.8 °F 77% 30.20 in 10.0 mi NE 4.6 mph - N/A   Overcast
6:35 PM 55.4 °F - 50.0 °F 82% 30.19 in 10.0 mi East 5.8 mph - N/A   Scattered Clouds
6:55 PM 57.2 °F - 51.8 °F 82% 30.19 in 10.0 mi ENE 4.6 mph - N/A   Clear
7:15 PM 55.4 °F - 50.0 °F 82% 30.19 in 10.0 mi ENE 4.6 mph - N/A   Clear
7:35 PM 55.4 °F - 51.8 °F 88% 30.18 in 10.0 mi ENE 5.8 mph - N/A   Clear
7:55 PM 55.4 °F - 51.8 °F 88% 30.18 in 10.0 mi ENE 4.6 mph - N/A   Scattered Clouds
8:15 PM 55.4 °F - 51.8 °F 88% 30.18 in 10.0 mi Calm Calm - N/A   Scattered Clouds
8:35 PM 55.4 °F - 51.8 °F 88% 30.18 in 10.0 mi Calm Calm - N/A   Clear
9:15 PM 53.6 °F - 50.0 °F 88% 30.17 in 7.0 mi ENE 3.5 mph - N/A   Mostly Cloudy
9:35 PM 53.6 °F - 50.0 °F 88% 30.16 in 7.0 mi East 3.5 mph - N/A   Scattered Clouds
9:55 PM 53.6 °F - 50.0 °F 88% 30.16 in 5.0 mi East 4.6 mph - N/A   Scattered Clouds
10:15 PM 53.6 °F - 50.0 °F 88% 30.15 in 5.0 mi East 4.6 mph - N/A   Scattered Clouds
10:35 PM 55.4 °F - 51.8 °F 88% 30.14 in 5.0 mi ENE 3.5 mph - N/A   Clear
10:55 PM 55.4 °F - 51.8 °F 88% 30.14 in 5.0 mi East 4.6 mph - N/A   Clear
11:15 PM 55.4 °F - 53.6 °F 94% 30.13 in 4.0 mi ENE 3.5 mph - N/A   Mostly Cloudy
11:35 PM 55.4 °F - 53.6 °F 94% 30.12 in 2.5 mi ENE 3.5 mph - N/A   Scattered Clouds